Вернуться в каталог

STARLINK-32729

АктивенСвязьVLEO
NORAD 62497·PAYLOAD·🇺🇸 United States

Запущен Jan 6, 2025 с Cape Canaveral Space Force Station

Loading…

Ближайшие Пролёты (ближайшие 24 часа)

TLE

СвежийSource: CelesTrak SupGP

Эпоха: Sep 15, 2026, 03:42 UTC

1 62497C 25003L   26258.15465278  .00010704  00000+0  38760-3 0  2585
2 62497  43.0028 298.7482 0001569 268.2403 332.7314 15.27582500    12

Отслеживайте STARLINK-32729 в реальном времени с AllMySat

Download on the App Store